This is the latest recevied weather packets stored in our database for station/object K5GHS-1. If no packets are shown the sender has not sent any weather packets the latest 10 day(s).
| Time | Temp. | Humidity | Pressure | Rain* | Wind** | Luminosity | Snow |
|---|---|---|---|---|---|---|---|
| 1777898641 | 18.33° C | 71% | 1011.5 hPa | 0 mm | - | 40 W/m² | - |
| 1777898338 | 18.33° C | 70% | 1011.6 hPa | 0 mm | - | 39 W/m² | - |
| 1777898036 | 18.33° C | 70% | 1011.4 hPa | 0 mm | - | 34 W/m² | - |
| 1777897731 | 17.78° C | 69% | 1011.3 hPa | 0 mm | - | 32 W/m² | - |
| 1777897428 | 17.78° C | 68% | 1011.3 hPa | 0 mm | - | 29 W/m² | - |
| 1777897124 | 17.78° C | 67% | 1011.3 hPa | 0 mm | - | 26 W/m² | - |
| 1777896821 | 17.78° C | 66% | 1011.3 hPa | 0 mm | - | 26 W/m² | - |
| 1777896518 | 17.78° C | 65% | 1011.2 hPa | 0 mm | - | 21 W/m² | - |
| 1777896215 | 17.78° C | 65% | 1011.1 hPa | 0 mm | - | 17 W/m² | - |
| 1777895913 | 17.78° C | 65% | 1011.2 hPa | 0 mm | - | 13 W/m² | - |
| 1777895610 | 17.78° C | 65% | 1011 hPa | 0 mm | - | 11 W/m² | - |
| 1777895307 | 17.78° C | 66% | 1011.3 hPa | 0 mm | - | 6 W/m² | - |
| 1777895006 | 17.78° C | 67% | 1011 hPa | 0 mm | - | 4 W/m² | - |
| 1777894702 | 17.78° C | 68% | 1011 hPa | 0 mm | - | 1 W/m² | - |
| 1777894399 | 17.78° C | 69% | 1010.9 hPa | 0 mm | - | 0 W/m² | - |
| 1777894097 | 17.78° C | 69% | 1011.1 hPa | 0 mm | - | 0 W/m² | - |
| 1777893794 | 17.78° C | 70% | 1011 hPa | 0 mm | - | 0 W/m² | - |
| 1777893489 | 17.22° C | 70% | 1011 hPa | 0 mm | - | 0 W/m² | - |
| 1777893186 | 17.78° C | 70% | 1010.9 hPa | 0 mm | - | 0 W/m² | - |
| 1777892883 | 17.78° C | 70% | 1011.1 hPa | 0 mm | - | 0 W/m² | - |
| 1777892579 | 17.78° C | 70% | 1011 hPa | 0 mm | - | 0 W/m² | - |
| 1777892274 | 17.78° C | 70% | 1011.1 hPa | 0 mm | - | 0 W/m² | - |
| 1777891971 | 17.78° C | 70% | 1011.1 hPa | 0 mm | - | 0 W/m² | - |
| 1777891669 | 17.78° C | 70% | 1011 hPa | 0 mm | - | 0 W/m² | - |
| 1777891365 | 17.78° C | 70% | 1011 hPa | 0 mm | - | 0 W/m² | - |
* Rain latest hour (hover to see other rain measurements)
** Current wind speed in m/s (hover to see current wind gust speed)